AUA423M LOWW-LEPA

Flight info

Callsign AUA423M
Flight time N/A
Altitude 34000
Route RUPET DCT GRZ DCT VAMET DCT BERTA DCT RIFEN DCT PIDAD DCT TALEP DCT RARQU DCT BALEN UT250 RIXOT
Aircraft A320/M-SDE3FGHIRWY/LB1

Departure

Time 2026-05-07 12:03
Airport Vienna International Airport (LOWW)

Arrival

Time N/A
Airport Palma de Mallorca Airport (LEPA)
Time Latitude Longitude Altitude Speed Heading
2026-05-07 11:25 48.11844 16.56931 610 ft 0 kts 206°
2026-05-07 11:50 48.11847 16.56933 621 ft 3 kts 206°
2026-05-07 11:50 48.11872 16.56949 625 ft 4 kts 199°
2026-05-07 11:50 48.11898 16.56958 621 ft 4 kts 177°
2026-05-07 11:50 48.11918 16.56948 618 ft 2 kts 117°
2026-05-07 11:51 48.11919 16.56946 617 ft 1 kts 116°
2026-05-07 11:56 48.11918 16.56949 610 ft 3 kts 115°
2026-05-07 11:56 48.11881 16.57081 614 ft 18 kts 112°
2026-05-07 11:56 48.11843 16.57247 617 ft 16 kts 112°
2026-05-07 11:57 48.11779 16.57356 616 ft 15 kts 152°
2026-05-07 11:57 48.11614 16.57425 620 ft 30 kts 163°
2026-05-07 11:57 48.11466 16.57441 618 ft 13 kts 214°
2026-05-07 11:57 48.11388 16.57397 610 ft 11 kts 202°
2026-05-07 11:58 48.11316 16.57349 610 ft 13 kts 207°
2026-05-07 11:58 48.11242 16.57289 614 ft 11 kts 210°
2026-05-07 11:58 48.11182 16.57237 610 ft 9 kts 212°
2026-05-07 11:58 48.11154 16.57214 612 ft 0 kts 208°
2026-05-07 12:01 48.11144 16.57206 617 ft 7 kts 206°
2026-05-07 12:01 48.11100 16.57177 612 ft 6 kts 204°
2026-05-07 12:01 48.11055 16.57146 614 ft 9 kts 200°
2026-05-07 12:01 48.11051 16.57112 616 ft 3 kts 299°
2026-05-07 12:02 48.11057 16.57094 618 ft 3 kts 295°
2026-05-07 12:02 48.11120 16.56896 614 ft 53 kts 296°
2026-05-07 12:02 48.11380 16.56103 621 ft 114 kts 296°
2026-05-07 12:02 48.11798 16.54797 623 ft 162 kts 294°
2026-05-07 12:03 48.12285 16.53212 1124 ft 169 kts 292°
2026-05-07 12:03 48.12289 16.51507 1817 ft 169 kts 242°
2026-05-07 12:03 48.11450 16.50315 2469 ft 168 kts 211°
2026-05-07 12:03 48.10410 16.49347 2888 ft 185 kts 211°
2026-05-07 12:04 48.09255 16.48361 3310 ft 196 kts 208°
2026-05-07 12:04 48.08076 16.47232 3705 ft 210 kts 214°
2026-05-07 12:04 48.06836 16.45852 4027 ft 234 kts 218°
2026-05-07 12:04 48.05511 16.44252 4415 ft 255 kts 219°
2026-05-07 12:05 48.04152 16.42547 5164 ft 261 kts 220°
2026-05-07 12:05 48.02766 16.40770 5995 ft 264 kts 220°
2026-05-07 12:05 48.01362 16.38955 6816 ft 268 kts 221°
2026-05-07 12:05 47.99956 16.37119 7624 ft 270 kts 221°
2026-05-07 12:06 47.98541 16.35264 8431 ft 272 kts 221°
2026-05-07 12:06 47.97121 16.33371 9229 ft 275 kts 225°
2026-05-07 12:06 47.95938 16.31116 10023 ft 278 kts 239°
2026-05-07 12:06 47.95148 16.28467 10663 ft 286 kts 249°
2026-05-07 12:07 47.94440 16.25575 10858 ft 308 kts 249°
2026-05-07 12:07 47.93678 16.22466 11012 ft 331 kts 249°
2026-05-07 12:07 47.92870 16.19164 11359 ft 344 kts 249°
2026-05-07 12:07 47.92045 16.15789 11978 ft 349 kts 249°
2026-05-07 12:08 47.91209 16.12376 12666 ft 352 kts 248°
2026-05-07 12:08 47.90362 16.08946 13356 ft 354 kts 249°
2026-05-07 12:08 47.89508 16.05492 14000 ft 356 kts 248°
2026-05-07 12:08 47.88607 16.02042 14624 ft 358 kts 243°
2026-05-07 12:09 47.87309 15.98893 15260 ft 357 kts 231°
2026-05-07 12:09 47.85579 15.96242 15866 ft 357 kts 219°
2026-05-07 12:09 47.83497 15.94210 16451 ft 360 kts 207°
2026-05-07 12:09 47.81166 15.92782 17081 ft 362 kts 202°
2026-05-07 12:10 47.78810 15.91453 17713 ft 362 kts 202°
2026-05-07 12:10 47.76457 15.90124 18310 ft 364 kts 202°
2026-05-07 12:10 47.74089 15.88786 18863 ft 365 kts 202°
2026-05-07 12:10 47.71715 15.87440 19372 ft 366 kts 202°
2026-05-07 12:11 47.69327 15.86087 19871 ft 367 kts 202°
2026-05-07 12:11 47.66949 15.84747 20302 ft 366 kts 202°
2026-05-07 12:11 47.64557 15.83399 20676 ft 369 kts 202°
2026-05-07 12:11 47.62151 15.82037 21078 ft 372 kts 202°
2026-05-07 12:12 47.59726 15.80667 21527 ft 373 kts 202°
2026-05-07 12:12 47.57295 15.79297 21964 ft 374 kts 202°
2026-05-07 12:12 47.54848 15.77920 22399 ft 377 kts 202°
2026-05-07 12:12 47.52386 15.76543 22842 ft 380 kts 201°
2026-05-07 12:13 47.49909 15.75162 23279 ft 381 kts 202°
2026-05-07 12:13 47.47423 15.73768 23623 ft 384 kts 202°
2026-05-07 12:13 47.44924 15.72366 23960 ft 385 kts 201°
2026-05-07 12:13 47.42412 15.70956 24321 ft 386 kts 202°
2026-05-07 12:14 47.39928 15.69557 24679 ft 387 kts 202°
2026-05-07 12:14 47.38224 15.68600 24922 ft 388 kts 202°
2026-05-07 12:14 47.34875 15.66727 25373 ft 390 kts 202°
2026-05-07 12:14 47.32337 15.65314 25678 ft 391 kts 202°
2026-05-07 12:15 47.29789 15.63895 25981 ft 393 kts 202°
2026-05-07 12:15 47.27222 15.62465 26296 ft 394 kts 202°
2026-05-07 12:15 47.25521 15.61519 26486 ft 395 kts 202°
2026-05-07 12:15 47.22081 15.59606 26912 ft 396 kts 202°
2026-05-07 12:16 47.20367 15.58653 27116 ft 397 kts 202°
2026-05-07 12:16 47.17780 15.57215 27407 ft 398 kts 202°
2026-05-07 12:16 47.15178 15.55773 27689 ft 400 kts 202°
2026-05-07 12:16 47.12574 15.54334 27978 ft 401 kts 202°
2026-05-07 12:17 47.09956 15.52888 28267 ft 403 kts 202°
2026-05-07 12:17 47.07327 15.51439 28550 ft 404 kts 202°
2026-05-07 12:17 47.04704 15.49994 28917 ft 403 kts 202°
2026-05-07 12:17 47.02084 15.48556 29351 ft 401 kts 202°
2026-05-07 12:18 46.99476 15.47125 29783 ft 399 kts 202°
2026-05-07 12:18 46.96882 15.45698 30178 ft 397 kts 202°
2026-05-07 12:18 46.94374 15.44064 30482 ft 394 kts 209°
2026-05-07 12:18 46.91950 15.42165 30769 ft 394 kts 209°
2026-05-07 12:19 46.89539 15.40272 31061 ft 394 kts 209°
2026-05-07 12:19 46.87131 15.38376 31365 ft 393 kts 209°
2026-05-07 12:19 46.84727 15.36488 31658 ft 392 kts 209°
2026-05-07 12:19 46.82338 15.34620 31952 ft 392 kts 209°
2026-05-07 12:20 46.79947 15.32722 32250 ft 391 kts 212°
2026-05-07 12:20 46.77753 15.30392 32542 ft 390 kts 221°
2026-05-07 12:20 46.75883 15.27529 32841 ft 391 kts 230°
2026-05-07 12:20 46.74321 15.24281 33123 ft 392 kts 233°
2026-05-07 12:21 46.72793 15.21003 33408 ft 391 kts 233°
2026-05-07 12:21 46.71257 15.17731 33696 ft 390 kts 234°
2026-05-07 12:21 46.69722 15.14472 33906 ft 391 kts 233°
2026-05-07 12:22 46.66637 15.07941 33952 ft 391 kts 233°
2026-05-07 12:22 46.63561 15.01457 33957 ft 392 kts 233°
2026-05-07 12:23 46.60446 14.94893 33957 ft 392 kts 233°
2026-05-07 12:23 46.57363 14.88411 33956 ft 392 kts 233°
2026-05-07 12:24 46.54255 14.81894 33961 ft 392 kts 233°
2026-05-07 12:24 46.51370 14.75837 33957 ft 392 kts 233°
2026-05-07 12:25 46.48322 14.69478 33955 ft 392 kts 233°
2026-05-07 12:25 46.45458 14.63533 33959 ft 392 kts 233°
2026-05-07 12:26 46.42147 14.57251 33966 ft 392 kts 230°
2026-05-07 12:26 46.38630 14.51210 33967 ft 392 kts 229°
2026-05-07 12:27 46.35105 14.45202 33977 ft 392 kts 229°
2026-05-07 12:27 46.31617 14.39131 33975 ft 392 kts 230°
2026-05-07 12:28 46.28148 14.33041 33966 ft 393 kts 230°
2026-05-07 12:28 46.24663 14.26955 33972 ft 393 kts 230°
2026-05-07 12:29 46.21170 14.20878 33973 ft 393 kts 230°
2026-05-07 12:29 46.17670 14.14819 33977 ft 393 kts 230°
2026-05-07 12:30 46.14164 14.08767 33986 ft 393 kts 230°
2026-05-07 12:30 46.10657 14.02707 33991 ft 393 kts 230°
2026-05-07 12:31 46.07147 13.96652 33998 ft 394 kts 230°
2026-05-07 12:31 46.03636 13.90605 34000 ft 394 kts 230°
2026-05-07 12:32 46.00137 13.84604 33993 ft 394 kts 230°
2026-05-07 12:32 45.96606 13.78568 33995 ft 395 kts 230°
2026-05-07 12:33 45.91299 13.69508 33994 ft 395 kts 230°
2026-05-07 12:33 45.87755 13.63477 33990 ft 395 kts 230°
2026-05-07 12:34 45.84386 13.57263 33986 ft 395 kts 238°
2026-05-07 12:34 45.81561 13.50488 33987 ft 396 kts 238°
2026-05-07 12:35 45.78730 13.43726 33990 ft 395 kts 238°
2026-05-07 12:35 45.75897 13.36977 33990 ft 395 kts 238°
2026-05-07 12:36 45.73052 13.30234 33994 ft 395 kts 238°
2026-05-07 12:36 45.70206 13.23506 33993 ft 395 kts 239°
2026-05-07 12:37 45.67355 13.16776 33995 ft 395 kts 238°
2026-05-07 12:37 45.64502 13.10058 33992 ft 395 kts 239°
2026-05-07 12:38 45.61641 13.03347 33996 ft 395 kts 239°
2026-05-07 12:38 45.58786 12.96633 33995 ft 396 kts 239°
2026-05-07 12:39 45.55920 12.89916 33993 ft 396 kts 239°
2026-05-07 12:39 45.53044 12.83215 33991 ft 396 kts 239°
2026-05-07 12:40 45.50179 12.76548 33990 ft 397 kts 239°
2026-05-07 12:40 45.47294 12.69849 33991 ft 397 kts 239°
2026-05-07 12:41 45.44401 12.63148 33993 ft 397 kts 239°
2026-05-07 12:41 45.41512 12.56462 33988 ft 397 kts 239°
2026-05-07 12:42 45.38613 12.49784 33984 ft 396 kts 239°
2026-05-07 12:42 45.35715 12.43119 33981 ft 396 kts 239°
2026-05-07 12:43 45.32815 12.36452 33981 ft 396 kts 239°
2026-05-07 12:43 45.29916 12.29808 33983 ft 396 kts 239°
2026-05-07 12:44 45.27010 12.23160 33984 ft 396 kts 239°
2026-05-07 12:44 45.24101 12.16533 33979 ft 396 kts 239°
2026-05-07 12:45 45.21190 12.09910 33978 ft 396 kts 239°
2026-05-07 12:45 45.18286 12.03334 33979 ft 396 kts 239°
2026-05-07 12:46 45.15363 11.96721 33980 ft 396 kts 239°
2026-05-07 12:46 45.12436 11.90116 33981 ft 396 kts 240°
2026-05-07 12:47 45.09508 11.83526 33982 ft 395 kts 239°
2026-05-07 12:47 45.06583 11.76946 33979 ft 394 kts 240°
2026-05-07 12:48 45.03658 11.70385 33982 ft 394 kts 240°
2026-05-07 12:48 45.00727 11.63836 33984 ft 394 kts 240°
2026-05-07 12:49 44.97680 11.57036 33982 ft 394 kts 240°
2026-05-07 12:49 44.94862 11.50762 33980 ft 394 kts 240°
2026-05-07 12:50 44.91927 11.44248 33987 ft 393 kts 240°
2026-05-07 12:50 44.88996 11.37742 33987 ft 393 kts 240°
2026-05-07 12:51 44.86061 11.31245 33988 ft 392 kts 240°
2026-05-07 12:51 44.83127 11.24768 33987 ft 392 kts 240°
2026-05-07 12:52 44.80192 11.18298 33988 ft 392 kts 240°
2026-05-07 12:52 44.77251 11.11855 33984 ft 391 kts 240°
2026-05-07 12:53 44.74317 11.05423 33982 ft 391 kts 240°
2026-05-07 12:53 44.71383 10.98996 33982 ft 391 kts 240°
2026-05-07 12:54 44.68439 10.92580 33982 ft 390 kts 240°
2026-05-07 12:54 44.65517 10.86225 33980 ft 390 kts 240°
2026-05-07 12:55 44.62573 10.79831 33979 ft 390 kts 240°
2026-05-07 12:55 44.59628 10.73440 33981 ft 390 kts 240°
2026-05-07 12:56 44.56686 10.67055 33978 ft 389 kts 240°
2026-05-07 12:56 44.53735 10.60691 33973 ft 389 kts 239°
2026-05-07 12:57 44.50778 10.54340 33972 ft 389 kts 240°
2026-05-07 12:57 44.47826 10.47991 33971 ft 389 kts 240°
2026-05-07 12:58 44.44862 10.41648 33973 ft 389 kts 239°
2026-05-07 12:58 44.41898 10.35311 33976 ft 389 kts 239°
2026-05-07 12:59 44.38929 10.28979 33976 ft 390 kts 239°
2026-05-07 12:59 44.35973 10.22676 33983 ft 390 kts 239°
2026-05-07 13:00 44.32998 10.16347 33985 ft 390 kts 239°
2026-05-07 13:00 44.30017 10.10024 33994 ft 390 kts 239°
2026-05-07 13:01 44.27030 10.03697 34003 ft 390 kts 239°
2026-05-07 13:01 44.24033 9.97380 34011 ft 390 kts 239°
2026-05-07 13:02 44.21034 9.91068 34010 ft 391 kts 239°
2026-05-07 13:02 44.18028 9.84747 34015 ft 391 kts 239°
2026-05-07 13:03 44.15020 9.78438 34003 ft 391 kts 239°
2026-05-07 13:03 44.12003 9.72120 34009 ft 392 kts 239°
2026-05-07 13:04 44.09493 9.66873 34004 ft 392 kts 239°
2026-05-07 13:04 44.06466 9.60577 33999 ft 392 kts 238°
2026-05-07 13:05 44.03432 9.54277 34001 ft 392 kts 238°
2026-05-07 13:05 43.99886 9.46904 33999 ft 393 kts 238°
2026-05-07 13:06 43.97355 9.41668 33996 ft 393 kts 238°
2026-05-07 13:06 43.93807 9.34337 34000 ft 394 kts 238°
2026-05-07 13:07 43.91245 9.29054 33997 ft 394 kts 238°
2026-05-07 13:07 43.88184 9.22761 33992 ft 394 kts 238°
2026-05-07 13:08 43.85118 9.16467 33993 ft 394 kts 238°
2026-05-07 13:08 43.82050 9.10185 33985 ft 394 kts 238°
2026-05-07 13:09 43.78980 9.03902 33983 ft 394 kts 238°
2026-05-07 13:09 43.75904 8.97627 33981 ft 394 kts 238°
2026-05-07 13:10 43.72819 8.91349 33982 ft 395 kts 238°
2026-05-07 13:10 43.69729 8.85071 33981 ft 395 kts 238°
2026-05-07 13:11 43.66625 8.78805 33982 ft 395 kts 236°
2026-05-07 13:11 43.64819 8.75928 33982 ft 399 kts 225°
2026-05-07 13:11 43.62582 8.73625 33979 ft 405 kts 214°
2026-05-07 13:12 43.59992 8.72036 33979 ft 413 kts 202°
2026-05-07 13:12 43.57144 8.71271 33973 ft 423 kts 190°
2026-05-07 13:12 43.51417 8.70350 33975 ft 407 kts 210°
2026-05-07 13:13 43.46607 8.66421 33973 ft 404 kts 213°
2026-05-07 13:13 43.41645 8.62741 33973 ft 406 kts 213°
2026-05-07 13:14 43.36673 8.59041 33978 ft 406 kts 215°
2026-05-07 13:14 43.32215 8.54428 33981 ft 400 kts 225°
2026-05-07 13:15 43.28164 8.49206 33985 ft 399 kts 227°
2026-05-07 13:15 43.24128 8.43948 33985 ft 400 kts 226°
2026-05-07 13:16 43.20008 8.38815 33979 ft 400 kts 225°
2026-05-07 13:16 43.15849 8.33744 33984 ft 401 kts 225°
2026-05-07 13:17 43.11679 8.28687 33983 ft 400 kts 225°
2026-05-07 13:17 43.07512 8.23624 33984 ft 400 kts 225°
2026-05-07 13:18 43.03355 8.18561 33984 ft 400 kts 225°
2026-05-07 13:18 42.99204 8.13504 33977 ft 400 kts 225°
2026-05-07 13:19 42.95045 8.08465 33986 ft 400 kts 225°
2026-05-07 13:19 42.90886 8.03426 33988 ft 400 kts 225°
2026-05-07 13:20 42.86755 7.98433 33992 ft 399 kts 225°
2026-05-07 13:20 42.82605 7.93419 33992 ft 399 kts 225°
2026-05-07 13:21 42.78448 7.88416 33993 ft 398 kts 225°
2026-05-07 13:21 42.74293 7.83422 34004 ft 399 kts 225°
2026-05-07 13:22 42.70140 7.78437 34004 ft 398 kts 225°
2026-05-07 13:22 42.65984 7.73455 33998 ft 397 kts 225°
2026-05-07 13:23 42.61838 7.68493 33995 ft 397 kts 225°
2026-05-07 13:23 42.57692 7.63543 34002 ft 397 kts 225°
2026-05-07 13:24 42.53546 7.58603 33997 ft 396 kts 224°
2026-05-07 13:24 42.49399 7.53686 33994 ft 396 kts 224°
2026-05-07 13:25 42.45260 7.48772 34001 ft 395 kts 225°
2026-05-07 13:25 42.41125 7.43868 33993 ft 395 kts 224°
2026-05-07 13:26 42.36993 7.38976 33992 ft 395 kts 224°
2026-05-07 13:26 42.32859 7.34099 33992 ft 394 kts 224°
2026-05-07 13:27 42.28758 7.29277 33993 ft 393 kts 224°
2026-05-07 13:27 42.24633 7.24427 33993 ft 393 kts 224°
2026-05-07 13:28 42.20510 7.19582 33998 ft 393 kts 224°
2026-05-07 13:28 42.16387 7.14749 34003 ft 393 kts 224°
2026-05-07 13:29 42.12265 7.09932 34001 ft 392 kts 224°
2026-05-07 13:29 42.08142 7.05124 33999 ft 391 kts 224°
2026-05-07 13:30 42.04031 7.00332 33999 ft 391 kts 224°
2026-05-07 13:30 41.99944 6.95519 34000 ft 390 kts 225°
2026-05-07 13:31 41.95956 6.90601 34005 ft 389 kts 226°
2026-05-07 13:31 41.91989 6.85672 34001 ft 388 kts 225°
2026-05-07 13:32 41.88008 6.80781 34004 ft 388 kts 225°
2026-05-07 13:32 41.84017 6.75922 34003 ft 387 kts 225°
2026-05-07 13:33 41.80025 6.71069 34008 ft 387 kts 225°
2026-05-07 13:33 41.76048 6.66227 34002 ft 386 kts 225°
2026-05-07 13:34 41.70120 6.59010 34000 ft 385 kts 225°
2026-05-07 13:35 41.66141 6.54201 34000 ft 385 kts 225°
2026-05-07 13:35 41.62165 6.49408 34003 ft 384 kts 225°
2026-05-07 13:36 41.58207 6.44617 34004 ft 384 kts 225°
2026-05-07 13:36 41.54245 6.39837 34001 ft 383 kts 225°
2026-05-07 13:37 41.50287 6.35084 33997 ft 383 kts 225°
2026-05-07 13:37 41.46330 6.30339 33996 ft 382 kts 225°
2026-05-07 13:38 41.42383 6.25597 33989 ft 382 kts 225°
2026-05-07 13:38 41.38436 6.20870 33987 ft 381 kts 225°
2026-05-07 13:39 41.34492 6.16159 33987 ft 381 kts 225°
2026-05-07 13:39 41.30554 6.11454 33981 ft 381 kts 224°
2026-05-07 13:40 41.26608 6.06758 33977 ft 380 kts 225°
2026-05-07 13:40 41.22671 6.02061 33978 ft 380 kts 224°
2026-05-07 13:41 41.18725 5.97382 33979 ft 380 kts 224°
2026-05-07 13:41 41.14772 5.92714 33973 ft 380 kts 224°
2026-05-07 13:42 41.10851 5.88083 33974 ft 380 kts 224°
2026-05-07 13:42 41.06879 5.83393 33973 ft 380 kts 224°
2026-05-07 13:43 41.02954 5.78762 33970 ft 380 kts 224°
2026-05-07 13:43 40.99003 5.74099 33972 ft 380 kts 224°
2026-05-07 13:44 40.95088 5.69411 33973 ft 379 kts 228°
2026-05-07 13:44 40.91926 5.63868 33968 ft 378 kts 235°
2026-05-07 13:45 40.88899 5.58200 33974 ft 377 kts 234°
2026-05-07 13:45 40.85856 5.52542 33971 ft 377 kts 234°
2026-05-07 13:46 40.82821 5.46896 33974 ft 377 kts 234°
2026-05-07 13:46 40.79784 5.41251 33975 ft 377 kts 234°
2026-05-07 13:47 40.76742 5.35612 33977 ft 377 kts 234°
2026-05-07 13:47 40.73701 5.29985 33979 ft 377 kts 234°
2026-05-07 13:48 40.70657 5.24356 33976 ft 377 kts 234°
2026-05-07 13:48 40.67615 5.18742 33976 ft 376 kts 233°
2026-05-07 13:49 40.64567 5.13139 33977 ft 376 kts 233°
2026-05-07 13:49 40.61523 5.07553 33977 ft 375 kts 233°
2026-05-07 13:50 40.58484 5.01976 33972 ft 375 kts 233°
2026-05-07 13:50 40.55444 4.96405 33965 ft 375 kts 233°
2026-05-07 13:51 40.52407 4.90845 33963 ft 375 kts 233°
2026-05-07 13:51 40.49360 4.85285 33961 ft 375 kts 233°
2026-05-07 13:52 40.46314 4.79730 33956 ft 375 kts 232°
2026-05-07 13:52 40.43284 4.74214 33960 ft 375 kts 232°
2026-05-07 13:53 40.40219 4.68659 33957 ft 375 kts 232°
2026-05-07 13:53 40.37139 4.63140 33959 ft 374 kts 232°
2026-05-07 13:54 40.34049 4.57658 33958 ft 374 kts 231°
2026-05-07 13:54 40.30964 4.52166 33957 ft 374 kts 231°
2026-05-07 13:55 40.27881 4.46666 33954 ft 375 kts 232°
2026-05-07 13:55 40.25322 4.42088 33957 ft 375 kts 231°
2026-05-07 13:56 40.22244 4.36566 33946 ft 376 kts 231°
2026-05-07 13:56 40.19168 4.31033 33950 ft 376 kts 231°
2026-05-07 13:57 40.16098 4.25497 33948 ft 377 kts 231°
2026-05-07 13:57 40.13027 4.19946 33950 ft 377 kts 231°
2026-05-07 13:58 40.09957 4.14391 33951 ft 377 kts 231°
2026-05-07 13:58 40.06887 4.08833 33954 ft 378 kts 231°
2026-05-07 13:59 40.03817 4.03266 33952 ft 378 kts 231°
2026-05-07 13:59 40.00743 3.97687 33952 ft 379 kts 231°
2026-05-07 14:00 39.97673 3.92095 33949 ft 379 kts 231°
2026-05-07 14:00 39.94604 3.86499 33950 ft 380 kts 231°
2026-05-07 14:01 39.91534 3.80888 33943 ft 381 kts 231°
2026-05-07 14:01 39.88457 3.75257 33942 ft 381 kts 231°
2026-05-07 14:02 39.85381 3.69627 33935 ft 382 kts 231°
2026-05-07 14:02 39.82300 3.63999 33936 ft 382 kts 231°
2026-05-07 14:03 39.79209 3.58360 33938 ft 383 kts 231°
2026-05-07 14:03 39.76135 3.52758 33936 ft 383 kts 231°
2026-05-07 14:04 39.73035 3.47112 33935 ft 384 kts 231°
2026-05-07 14:04 39.69929 3.41454 33938 ft 385 kts 231°
2026-05-07 14:05 39.66827 3.35792 33932 ft 385 kts 231°
2026-05-07 14:05 39.63721 3.30109 33930 ft 386 kts 231°
2026-05-07 14:06 39.60619 3.24429 33937 ft 386 kts 231°
2026-05-07 14:06 39.57513 3.18740 33933 ft 387 kts 231°
2026-05-07 14:07 39.55459 3.14985 33934 ft 387 kts 231°
2026-05-07 14:07 39.53374 3.11246 33931 ft 385 kts 228°
2026-05-07 14:08 39.50147 3.05684 33930 ft 387 kts 231°
2026-05-07 14:08 39.47027 2.99996 33933 ft 388 kts 231°
2026-05-07 14:09 39.43902 2.94309 33935 ft 388 kts 231°
2026-05-07 14:09 39.40800 2.88663 33935 ft 388 kts 231°
2026-05-07 14:10 39.37679 2.82968 33933 ft 388 kts 231°
2026-05-07 14:10 39.34562 2.77270 33931 ft 388 kts 231°
2026-05-07 14:11 39.31453 2.71576 33928 ft 388 kts 231°
2026-05-07 14:11 39.28345 2.65877 33929 ft 388 kts 231°
2026-05-07 14:12 39.25243 2.60171 33925 ft 389 kts 231°
2026-05-07 14:12 39.22146 2.54459 33920 ft 388 kts 231°
2026-05-07 14:13 39.19053 2.48749 33923 ft 389 kts 231°
2026-05-07 14:13 39.15960 2.43038 33924 ft 389 kts 231°
2026-05-07 14:14 39.12868 2.37333 33931 ft 389 kts 231°
2026-05-07 14:14 39.09774 2.31628 33931 ft 388 kts 231°
2026-05-07 14:15 39.06688 2.25938 33935 ft 387 kts 231°
2026-05-07 14:15 39.03630 2.20297 33936 ft 387 kts 231°
2026-05-07 14:16 39.00535 2.14587 33934 ft 386 kts 231°
2026-05-07 14:16 38.97470 2.08930 33935 ft 386 kts 231°
2026-05-07 14:17 38.94423 2.03310 33940 ft 386 kts 231°
2026-05-07 14:17 38.91354 1.97659 33938 ft 386 kts 231°
2026-05-07 14:18 38.88288 1.92022 33939 ft 385 kts 231°
2026-05-07 14:18 38.85216 1.86387 33943 ft 385 kts 231°
2026-05-07 14:19 38.82139 1.80760 33942 ft 385 kts 231°
2026-05-07 14:19 38.79059 1.75141 33943 ft 385 kts 231°
2026-05-07 14:20 38.75980 1.69531 33940 ft 385 kts 231°
2026-05-07 14:20 38.72898 1.63926 33943 ft 385 kts 231°
2026-05-07 14:21 38.69806 1.58312 33939 ft 386 kts 231°
2026-05-07 14:21 38.66712 1.52704 33942 ft 386 kts 231°
2026-05-07 14:22 38.63613 1.47089 33937 ft 387 kts 231°
2026-05-07 14:22 38.60502 1.41461 33942 ft 388 kts 231°
2026-05-07 14:23 38.57379 1.35830 33944 ft 389 kts 231°
2026-05-07 14:23 38.54243 1.30191 33943 ft 390 kts 231°
2026-05-07 14:24 38.51116 1.24594 33942 ft 390 kts 231°
2026-05-07 14:24 38.47946 1.18951 33941 ft 391 kts 231°
2026-05-07 14:25 38.44765 1.13322 33941 ft 392 kts 231°
2026-05-07 14:25 38.41559 1.07685 33939 ft 393 kts 231°
2026-05-07 14:26 38.38335 1.02054 33934 ft 393 kts 231°
2026-05-07 14:26 38.35091 0.96424 33939 ft 394 kts 231°
2026-05-07 14:27 38.31828 0.90801 33941 ft 395 kts 231°
2026-05-07 14:27 38.28550 0.85196 33942 ft 395 kts 231°
2026-05-07 14:28 38.25252 0.79605 33942 ft 395 kts 231°
2026-05-07 14:28 38.21934 0.74030 33942 ft 395 kts 231°
2026-05-07 14:29 38.18600 0.68476 33940 ft 396 kts 231°
2026-05-07 14:29 38.15244 0.62934 33944 ft 396 kts 231°
2026-05-07 14:30 38.11869 0.57405 33945 ft 396 kts 231°
2026-05-07 14:30 38.08493 0.51913 33945 ft 397 kts 231°
2026-05-07 14:31 38.05085 0.46411 33949 ft 397 kts 231°
2026-05-07 14:31 38.01655 0.40911 33952 ft 398 kts 231°
2026-05-07 14:32 37.98206 0.35419 33952 ft 399 kts 231°
2026-05-07 14:32 37.94736 0.29929 33952 ft 399 kts 231°
2026-05-07 14:33 37.91247 0.24446 33953 ft 400 kts 231°
2026-05-07 14:33 37.87745 0.18973 33953 ft 401 kts 231°
2026-05-07 14:34 37.84218 0.13503 33951 ft 401 kts 231°
2026-05-07 14:34 37.80673 0.08052 33949 ft 401 kts 231°
2026-05-07 14:35 37.77104 0.02617 33945 ft 402 kts 230°
2026-05-07 14:35 37.73515 -0.02797 33947 ft 403 kts 231°
2026-05-07 14:36 37.69890 -0.08203 33938 ft 403 kts 231°
2026-05-07 14:36 37.66241 -0.13592 33936 ft 404 kts 230°
2026-05-07 14:37 37.62568 -0.18958 33936 ft 405 kts 230°
2026-05-07 14:37 37.57003 -0.26993 33936 ft 406 kts 230°
2026-05-07 14:38 37.53270 -0.32327 33935 ft 406 kts 230°
2026-05-07 14:38 37.49508 -0.37657 33934 ft 407 kts 230°
2026-05-07 14:39 37.45732 -0.42959 33930 ft 407 kts 230°
2026-05-07 14:39 37.41929 -0.48254 33930 ft 408 kts 230°
2026-05-07 14:40 37.38101 -0.53517 33925 ft 408 kts 230°
2026-05-07 14:40 37.34244 -0.58758 33927 ft 408 kts 230°
2026-05-07 14:41 37.30369 -0.63962 33920 ft 408 kts 230°
2026-05-07 14:41 37.26470 -0.69136 33915 ft 408 kts 230°
2026-05-07 14:42 37.22537 -0.74287 33911 ft 408 kts 230°
2026-05-07 14:42 37.18579 -0.79408 33902 ft 408 kts 230°
2026-05-07 14:43 37.15275 -0.83632 33895 ft 409 kts 230°
2026-05-07 14:43 37.11276 -0.88695 33887 ft 409 kts 230°
2026-05-07 14:44 37.07253 -0.93730 33883 ft 409 kts 230°
2026-05-07 14:44 37.03209 -0.98743 33873 ft 409 kts 230°
2026-05-07 14:45 36.99142 -1.03734 33873 ft 410 kts 230°
2026-05-07 14:45 36.95056 -1.08703 33865 ft 410 kts 230°
2026-05-07 14:46 36.90945 -1.13647 33860 ft 410 kts 230°
2026-05-07 14:46 36.86809 -1.18574 33853 ft 411 kts 230°
2026-05-07 14:47 36.82651 -1.23469 33852 ft 411 kts 230°
2026-05-07 14:47 36.78467 -1.28341 33846 ft 411 kts 230°
2026-05-07 14:48 36.74266 -1.33186 33836 ft 412 kts 230°
2026-05-07 14:48 36.70079 -1.37983 33824 ft 411 kts 230°
2026-05-07 14:49 36.65852 -1.42782 33815 ft 412 kts 230°
2026-05-07 14:49 36.61607 -1.47570 33807 ft 412 kts 230°
2026-05-07 14:50 36.57345 -1.52340 33800 ft 412 kts 230°
2026-05-07 14:50 36.53070 -1.57096 33787 ft 412 kts 230°
2026-05-07 14:51 36.48780 -1.61835 33780 ft 413 kts 230°
2026-05-07 14:51 36.44478 -1.66570 33770 ft 413 kts 230°
2026-05-07 14:52 36.40166 -1.71295 33760 ft 413 kts 230°
2026-05-07 14:52 36.35855 -1.76011 33757 ft 414 kts 230°
2026-05-07 14:53 36.31532 -1.80728 33753 ft 414 kts 230°
2026-05-07 14:53 36.27210 -1.85437 33747 ft 413 kts 230°
2026-05-07 14:54 36.22890 -1.90133 33745 ft 414 kts 230°
2026-05-07 14:54 36.18563 -1.94839 33736 ft 414 kts 230°
2026-05-07 14:55 36.14240 -1.99535 33730 ft 414 kts 230°
2026-05-07 14:55 36.09914 -2.04237 33723 ft 414 kts 230°
2026-05-07 14:56 36.05590 -2.08939 33707 ft 415 kts 230°
2026-05-07 14:56 36.01258 -2.13647 33704 ft 415 kts 230°
2026-05-07 14:57 35.96960 -2.18318 33686 ft 414 kts 230°
2026-05-07 14:57 35.92640 -2.23019 33673 ft 414 kts 230°
2026-05-07 14:58 35.88314 -2.27729 33670 ft 415 kts 230°
2026-05-07 14:58 35.83989 -2.32445 33663 ft 415 kts 230°
2026-05-07 14:59 35.79667 -2.37160 33655 ft 415 kts 230°
2026-05-07 14:59 35.75344 -2.41882 33648 ft 415 kts 230°
2026-05-07 15:00 35.71027 -2.46601 33640 ft 415 kts 230°
2026-05-07 15:00 35.66703 -2.51329 33633 ft 416 kts 230°
2026-05-07 15:01 35.62382 -2.56055 33625 ft 416 kts 230°
2026-05-07 15:01 35.58068 -2.60783 33618 ft 416 kts 230°
2026-05-07 15:02 35.53757 -2.65516 33614 ft 416 kts 230°
2026-05-07 15:02 35.49453 -2.70253 33612 ft 416 kts 230°
2026-05-07 15:03 35.45147 -2.74996 33615 ft 416 kts 230°
2026-05-07 15:03 35.40871 -2.79708 33617 ft 416 kts 230°
2026-05-07 15:04 35.36570 -2.84452 33615 ft 416 kts 230°
2026-05-07 15:04 35.32269 -2.89202 33603 ft 417 kts 230°
2026-05-07 15:05 35.27962 -2.93961 33590 ft 417 kts 230°
2026-05-07 15:05 35.23661 -2.98726 33594 ft 417 kts 230°
2026-05-07 15:06 35.19362 -3.03504 33582 ft 418 kts 230°
2026-05-07 15:06 35.15063 -3.08292 33564 ft 418 kts 230°
2026-05-07 15:07 35.10767 -3.13082 33540 ft 418 kts 230°
2026-05-07 15:07 35.06472 -3.17873 33533 ft 418 kts 230°
2026-05-07 15:08 35.02170 -3.22676 33529 ft 418 kts 230°
2026-05-07 15:08 34.97908 -3.27440 33528 ft 419 kts 230°
2026-05-07 15:09 34.93614 -3.32240 33519 ft 418 kts 230°
2026-05-07 15:09 34.89325 -3.37032 33510 ft 419 kts 230°
2026-05-07 15:10 34.85033 -3.41828 33511 ft 419 kts 230°
2026-05-07 15:10 34.80746 -3.46626 33502 ft 419 kts 230°
2026-05-07 15:11 34.76456 -3.51431 33496 ft 419 kts 230°
2026-05-07 15:11 34.72176 -3.56237 33500 ft 419 kts 230°
2026-05-07 15:12 34.67899 -3.61048 33495 ft 419 kts 230°
2026-05-07 15:12 34.63627 -3.65867 33482 ft 419 kts 229°
2026-05-07 15:13 34.59354 -3.70683 33477 ft 419 kts 229°
2026-05-07 15:13 34.55111 -3.75474 33482 ft 419 kts 230°
2026-05-07 15:14 34.50847 -3.80275 33480 ft 418 kts 229°
2026-05-07 15:14 34.46583 -3.85086 33474 ft 418 kts 229°
2026-05-07 15:15 34.42332 -3.89903 33477 ft 419 kts 229°
2026-05-07 15:15 34.38078 -3.94731 33467 ft 419 kts 229°
2026-05-07 15:16 34.33836 -3.99573 33459 ft 420 kts 230°
2026-05-07 15:16 34.29592 -4.04422 33458 ft 419 kts 230°
2026-05-07 15:17 34.25353 -4.09275 33458 ft 420 kts 229°
2026-05-07 15:17 34.21115 -4.14142 33461 ft 420 kts 229°
2026-05-07 15:18 34.16876 -4.19011 33457 ft 421 kts 230°
2026-05-07 15:18 34.12637 -4.23893 33458 ft 421 kts 230°
2026-05-07 15:19 34.08402 -4.28765 33456 ft 421 kts 229°
2026-05-07 15:19 34.04196 -4.33612 33458 ft 421 kts 229°
2026-05-07 15:20 33.99965 -4.38496 33454 ft 421 kts 229°
2026-05-07 15:20 33.95736 -4.43387 33450 ft 421 kts 229°
2026-05-07 15:21 33.91510 -4.48283 33448 ft 422 kts 229°
2026-05-07 15:21 33.87285 -4.53184 33437 ft 422 kts 229°
2026-05-07 15:22 33.83061 -4.58094 33425 ft 422 kts 229°
2026-05-07 15:22 33.78843 -4.63011 33424 ft 422 kts 229°
2026-05-07 15:23 33.74625 -4.67931 33422 ft 423 kts 229°
2026-05-07 15:23 33.70406 -4.72861 33413 ft 423 kts 229°
2026-05-07 15:24 33.66195 -4.77794 33405 ft 423 kts 229°
2026-05-07 15:24 33.61985 -4.82727 33406 ft 423 kts 229°
2026-05-07 15:25 33.57778 -4.87658 33371 ft 423 kts 229°
2026-05-07 15:25 33.53575 -4.92591 33369 ft 423 kts 229°
2026-05-07 15:26 33.49376 -4.97514 33363 ft 422 kts 229°
2026-05-07 15:26 33.45181 -5.02434 33374 ft 422 kts 229°
2026-05-07 15:27 33.41020 -5.07311 33369 ft 422 kts 229°
2026-05-07 15:27 33.36830 -5.12219 33362 ft 421 kts 229°
2026-05-07 15:28 33.32640 -5.17128 33353 ft 421 kts 229°
2026-05-07 15:28 33.28455 -5.22039 33356 ft 422 kts 229°
2026-05-07 15:29 33.24272 -5.26949 33350 ft 422 kts 229°
2026-05-07 15:29 33.20088 -5.31866 33336 ft 422 kts 229°
2026-05-07 15:30 33.15912 -5.36777 33335 ft 422 kts 229°
2026-05-07 15:30 33.11735 -5.41692 33311 ft 422 kts 229°
2026-05-07 15:31 33.07560 -5.46604 33302 ft 422 kts 229°
2026-05-07 15:31 33.03380 -5.51520 33297 ft 422 kts 229°
2026-05-07 15:32 32.99201 -5.56434 33288 ft 422 kts 229°
2026-05-07 15:32 32.95023 -5.61354 33281 ft 422 kts 229°
2026-05-07 15:33 32.90845 -5.66274 33277 ft 422 kts 229°
2026-05-07 15:33 32.86672 -5.71186 33271 ft 422 kts 229°
2026-05-07 15:34 32.82504 -5.76093 33261 ft 422 kts 229°
2026-05-07 15:34 32.79037 -5.80176 33253 ft 422 kts 229°
2026-05-07 15:35 32.74862 -5.85091 33252 ft 422 kts 229°
2026-05-07 15:35 32.70693 -5.90001 33246 ft 422 kts 229°
2026-05-07 15:36 32.66522 -5.94912 33243 ft 422 kts 229°
2026-05-07 15:36 32.62344 -5.99825 33237 ft 423 kts 229°
2026-05-07 15:37 32.58173 -6.04732 33225 ft 423 kts 229°
2026-05-07 15:37 32.53996 -6.09645 33214 ft 423 kts 229°
2026-05-07 15:38 32.49825 -6.14549 33202 ft 423 kts 229°
2026-05-07 15:38 32.45651 -6.19458 33196 ft 423 kts 229°
2026-05-07 15:39 32.41481 -6.24363 33191 ft 423 kts 229°
2026-05-07 15:39 32.37308 -6.29276 33186 ft 423 kts 229°
2026-05-07 15:40 32.33132 -6.34188 33184 ft 423 kts 229°
2026-05-07 15:40 32.28989 -6.39058 33183 ft 423 kts 229°
2026-05-07 15:41 32.24810 -6.43970 33185 ft 424 kts 229°
2026-05-07 15:41 32.20632 -6.48882 33187 ft 424 kts 229°
2026-05-07 15:42 32.16460 -6.53787 33192 ft 423 kts 229°
2026-05-07 15:42 32.12283 -6.58691 33196 ft 423 kts 229°
2026-05-07 15:43 32.08109 -6.63589 33194 ft 423 kts 229°
2026-05-07 15:43 32.03933 -6.68489 33191 ft 423 kts 229°
2026-05-07 15:44 31.99767 -6.73376 33190 ft 423 kts 229°
2026-05-07 15:44 31.95594 -6.78265 33188 ft 423 kts 229°
2026-05-07 15:45 31.91418 -6.83157 33180 ft 423 kts 229°
2026-05-07 15:45 31.87249 -6.88047 33179 ft 423 kts 229°
2026-05-07 15:46 31.80996 -6.95386 33173 ft 424 kts 229°
2026-05-07 15:47 31.76824 -7.00288 33171 ft 424 kts 229°
2026-05-07 15:47 31.72684 -7.05155 33165 ft 424 kts 229°
2026-05-07 15:48 31.68515 -7.10055 33161 ft 424 kts 229°
2026-05-07 15:48 31.64351 -7.14958 33154 ft 424 kts 229°
2026-05-07 15:49 31.60183 -7.19865 33153 ft 425 kts 229°
2026-05-07 15:49 31.56015 -7.24775 33149 ft 425 kts 228°
2026-05-07 15:50 31.51848 -7.29686 33145 ft 425 kts 229°
2026-05-07 15:50 31.47673 -7.34595 33137 ft 426 kts 229°
2026-05-07 15:51 31.43499 -7.39503 33135 ft 426 kts 228°
2026-05-07 15:51 31.39319 -7.44420 33123 ft 426 kts 228°
2026-05-07 15:52 31.35143 -7.49335 33121 ft 426 kts 228°
2026-05-07 15:52 31.30955 -7.54242 33113 ft 427 kts 228°
2026-05-07 15:53 31.26770 -7.59158 33110 ft 426 kts 228°
2026-05-07 15:53 31.22595 -7.64062 33109 ft 426 kts 228°
2026-05-07 15:54 31.18412 -7.68962 33106 ft 426 kts 228°
2026-05-07 15:54 31.14231 -7.73855 33106 ft 425 kts 228°
2026-05-07 15:55 31.10054 -7.78735 33107 ft 425 kts 228°